Regional Weather Roundup
Issued by NWS

Home | Current Version | Previous Version | Graphics & Text | Print | Product List | Glossary On
Versions: 1 2 3 4 5 6 7 8 9 10 11 12 13 14 15 16 17 18 19 20 21 22 23 24 25 26 27 28 29 30 31 32 33 34 35 36 37 38 39 40 41 42 43 44 45 46 47 48 49 50
000
ASUS43 KMPX 300501
RWRMN
WEATHER ROUNDUP FOR MINNESOTA
NATIONAL WEATHER SERVICE TWIN CITIES/CHANHASSEN MN
1200 AM CDT SAT AUG 30 2014


NOTE: "FAIR" INDICATES FEW OR NO CLOUDS BELOW 12,000 FEET WITH NO
SIGNIFICANT WEATHER AND/OR OBSTRUCTIONS TO VISIBILITY. N/A MEANS
CURRENT SKY AND/OR WEATHER CONDITIONS ARE NOT AVAILABLE.

MNZ060>063-068>070-300600-
   Twin Cities Metro

CITY           SKY/WX    TMP DP  RH WIND       PRES   REMARKS
TWIN CITIES    LGT RAIN  70  69  97 NE5       29.77R
ST PAUL        LGT RAIN  69  67  93 E3        29.77R
CRYSTAL        CLOUDY    71  67  87 N3        29.76S
BLAINE         CLOUDY    70  70 100 CALM      29.78R
LAKEVILLE      TSTM      66  66 100 NW6       29.78R
EDEN PRAIRIE   CLOUDY    71  68  90 N5        29.76R
SOUTH ST PAUL  RAIN      68  66  94 NW3       29.77R
LAKE ELMO      RAIN      68  66  94 CALM      29.79S
$$
MNZ001>005-007-008-013>017-022>024-027-028-300600-
   Northwest Minnesota

CITY           SKY/WX    TMP DP  RH WIND       PRES   REMARKS
BEMIDJI        CLOUDY    62  60  92 N10G17    29.85R
HALLOCK        CLEAR     55  50  82 N7        29.93S
ROSEAU         CLEAR     54  48  82 N8        29.91S
WARROAD        CLEAR     55  52  88 NW6       29.91S
THIEF RVR FALL CLOUDY    61  55  82 N9        29.90S
CROOKSTON      CLOUDY    61  57  88 N8        29.90S
FOSSTON        CLOUDY    57  55  94 N13       29.88S
DETROIT LAKES  CLOUDY    64  63  94 N6        29.85S
MOORHEAD       CLOUDY    61  61 100 N13       29.87S
PARK RAPIDS    CLOUDY    65  64  97 NW7       29.82S
MAHNOMEN       RAIN      60  59  96 N15       29.85S
$$
MNZ006-009>011-018-025>026-300600-
   North Central Minnesota

CITY           SKY/WX    TMP DP  RH WIND       PRES   REMARKS
BAUDETTE       PTCLDY    58  56  93 N10       29.87S
FLAG ISLAND    CLEAR     61  57  88 N12       29.89S
INTL FALLS     CLOUDY    59  57  93 N10       29.84R
WASKISH        CLOUDY    57  55  94 N6        29.86S
BIG FORK       MOCLDY    64  63  94 CALM      29.82S
LONGVILLE      CLOUDY    61  61 100 CALM      29.81S FOG
GRAND RAPIDS   CLOUDY    64  61  88 CALM      29.80F
CRANE LAKE     CLOUDY    57  57 100 CALM      29.83S FOG
ORR            CLOUDY    61  59  94 CALM      29.79F
COOK           CLOUDY    61  61 100 CALM      29.82S
WALKER         FAIR      64  63  96 N5        29.81S
$$
MNZ012-019>021-037-300600-
   Northeast Minnesota

CITY           SKY/WX    TMP DP  RH WIND       PRES   REMARKS
DULUTH         CLOUDY    64  61  90 N5        29.80S
ELY            CLOUDY    61  57  88 CALM      29.81S
HIBBING        CLOUDY    61  59  93 CALM      29.81S FOG
EVELETH        FOG       59  59 100 CALM      29.82S VSB 1/2
DULUTH HARBOR  CLOUDY    63  61  94 NE5       29.79F
TWO HARBORS    CLOUDY    61  55  82 CALM      29.78R
SILVER BAY     CLOUDY    59  59 100 CALM      29.78S
GRAND MARAIS     N/A     60  59  96 CALM      29.78S
G MARAIS ARPRT CLOUDY    57  54  88 N7        29.82S
$$
MNZ029>031-032-039>041-046>048-054>057-064-300600-
   West Central Minnesota

CITY           SKY/WX    TMP DP  RH WIND       PRES   REMARKS
FERGUS FALLS   CLOUDY    63  63 100 N12G18    29.84R
WHEATON        CLOUDY    61  57  88 NW12G20   29.87R
MORRIS         MOCLDY    66  64  94 N5        29.81S
ALEXANDRIA     CLOUDY    66  64  93 N7        29.84R
ELBOW LAKE     MOCLDY    64  64  98 NW7       29.83R
WADENA         CLOUDY    64  63  94 NW3       29.82F
GLENWOOD       MOCLDY    64  63  94 NW5       29.83S
APPLETON       MOCLDY    66  64  94 NW5       29.81S
BENSON         CLOUDY    64  64 100 CALM      29.82R
ORTONVILLE     CLOUDY    66  63  88 N15G22    29.84R
MADISON        MOCLDY    68  66  94 NW7       29.83R FOG
WILLMAR        FAIR      66  63  88 NW3       29.81S
$$
MNZ033>034-036-042>043-049>051-058-059-300600-
   Central Minnesota

CITY           SKY/WX    TMP DP  RH WIND       PRES   REMARKS
ST CLOUD       CLOUDY    70  67  90 N3        29.79S
SAUK CENTRE    CLOUDY    64  64 100 NW3       29.81S
PAYNESVILLE    HVY RAIN  64  64 100 CALM      29.80S
AITKIN         CLOUDY    66  61  82 CALM      29.78F
PINE RIVER     MOCLDY    64  64 100 CALM      29.84F FOG
BRAINERD       CLOUDY    64  64 100 CALM      29.81S
STAPLES        CLOUDY    64  63  94 NW7       29.81F
LONG PRAIRIE   MOCLDY    63  63 100 CALM      29.82S
LITTLE FALLS   FOG       63  63 100 CALM      29.81R VSB 1/4
LITCHFIELD     CLOUDY    70  70 100 CALM      29.80S
BUFFALO        CLOUDY    69  67  93 N3        29.79S
MAPLE LAKE     CLOUDY    69  69  98 CALM      29.80S FOG
$$
MNZ037-044-045-052-053-300600-
   East Central Minnesota

CITY           SKY/WX    TMP DP  RH WIND       PRES   REMARKS
PRINCETON      CLOUDY    68  66  94 CALM      29.79S
MORA           CLOUDY    64  64 100 CALM      29.81S
CAMBRIDGE      CLOUDY    70  61  73 CALM      29.77S
RUSH CITY      CLOUDY    67  65  95 CALM      29.78S
MOOSE LAKE     CLOUDY    63  61  94 CALM      29.78S FOG
HINCKLEY       CLOUDY    64  64 100 CALM      29.79S
CLOQUET        FOG       63  61  94 CALM      29.80S VSB 3/4
MCGREGOR       CLOUDY    64  63  94 CALM      29.81S
$$
MNZ071>073-080-081-089-090-097-098-300600-
   Southwest Minnesota

CITY           SKY/WX    TMP DP  RH WIND       PRES   REMARKS
MONTEVIDEO     MOCLDY    66  66 100 CALM      29.82S
GRANITE FALLS  MOCLDY    66  66 100 NW6       29.82S
CANBY          MOCLDY    67  66  96 CALM      29.84R
MARSHALL       CLOUDY    66  64  94 NW7       29.81S
REDWOOD FALLS  MOCLDY    65  65 100 W5        29.79S
OLIVIA         MOCLDY    64  63  94 NW3       29.79S
PIPESTONE      FOG       64  64 100 CALM      29.84S VSB 1/2
WINDOM         CLOUDY    66  64  94 CALM      29.82S
WORTHINGTON    CLOUDY    64  64 100 NW5       29.84S
JACKSON        RAIN      66  63  88 NW6       29.82F
TRACY          MOCLDY    68  67  96 CALM      29.83R
SLAYTON        MOCLDY    65  65 100 CALM      29.85R
$$
MNZ065>067-074>077-082>085-091>093-300600-
   South Central Minnesota

CITY           SKY/WX    TMP DP  RH WIND       PRES   REMARKS
MANKATO        CLOUDY    68  64  88 NW7       29.78S
NEW ULM          N/A     64  64 100 W5        29.79S
ST JAMES       CLOUDY    66  64  94 W3        29.80F
FAIRMONT       CLOUDY    64  63  94 NW7       29.78F
GLENCOE        LGT RAIN  69  66  89 CALM      29.77F
FARIBAULT      CLOUDY    72  64  78 CALM      29.78S
OWATONNA       RAIN      70  66  88 CALM      29.77F
WASECA         LGT RAIN  64  61  88 SW3       29.79F
ALBERT LEA     CLOUDY    66  64  94 NW7       29.76F
$$
MNZ078>079-086>088-094>096-300600-
   Southeast Minnesota

CITY           SKY/WX    TMP DP  RH WIND       PRES   REMARKS
ROCHESTER      LGT RAIN  65  63  93 SW5       29.79R
RED WING       RAIN      68  66  94 N3        29.75F
STANTON        CLOUDY    69  66  91 N3        29.75S
DODGE CENTER   MOCLDY    66  66 100 W8        29.78R
WINONA         CLOUDY    70  68  94 CALM      29.75F
AUSTIN         CLOUDY    64  64 100 CALM      29.77R
PRESTON        RAIN      65  65 100 CALM      29.79R
$$
ABBREVIATIONS USED IN REMARKS
   TC - TEMPERATURES IN CELSIUS
  WCI - WIND CHILL INDEX
   HX - HEAT INDEX
  VSB - VISIBILITY
$$



USA.gov is the U.S. government's official web portal to all federal, state and local government web resources and services.